This is the latest recevied weather packets stored in our database for station/object AE6DC-5. If no packets are shown the sender has not sent any weather packets the latest 10 day(s).
| Time | Temp. | Humidity | Pressure | Rain* | Wind** | Luminosity | Snow |
|---|---|---|---|---|---|---|---|
| 1778000657 | 12.78° C | 91% | 1015.8 hPa | 0 mm | - | 262 W/m² | - |
| 1777996701 | 12.78° C | 90% | 1015.7 hPa | 0 mm | - | 102 W/m² | - |
| 1777993699 | 12.78° C | 88% | 1015.4 hPa | 0 mm | - | 44 W/m² | - |
| 1777991899 | 12.78° C | 88% | 1015.3 hPa | 0 mm | - | 27 W/m² | - |
| 1777991536 | 12.78° C | 88% | 1015.2 hPa | 0 mm | - | 40 W/m² | - |
| 1777988660 | 12.78° C | 87% | 1014.9 hPa | 0 mm | - | 11 W/m² | - |
| 1777988303 | 12.78° C | 86% | 1014.8 hPa | 0 mm | - | 9 W/m² | - |
| 1777986498 | 12.78° C | 86% | 1014.9 hPa | 0 mm | - | 1 W/m² | - |
| 1777985058 | 12.78° C | 84% | 1015 hPa | 0 mm | - | 0 W/m² | - |
| 1777984338 | 12.78° C | 83% | 1015 hPa | 0 mm | - | 0 W/m² | - |
| 1777981101 | 12.78° C | 82% | 1015.1 hPa | 0 mm | - | 0 W/m² | - |
| 1777980748 | 12.78° C | 82% | 1015.2 hPa | 0 mm | - | 0 W/m² | - |
| 1777980385 | 12.78° C | 82% | 1015.2 hPa | 0 mm | - | 0 W/m² | - |
| 1777980025 | 12.22° C | 82% | 1014.9 hPa | 0 mm | - | 0 W/m² | - |
| 1777977860 | 12.78° C | 87% | 1015.1 hPa | 0 mm | - | 0 W/m² | - |
| 1777976060 | 12.22° C | 89% | 1015 hPa | 0.25 mm | - | 0 W/m² | - |
| 1777970311 | 11.67° C | 89% | 1015.7 hPa | 3.05 mm | - | 0 W/m² | - |
| 1777967418 | 12.22° C | 85% | 1016.1 hPa | 0.51 mm | - | 0 W/m² | - |
| 1777964901 | 12.22° C | 84% | 1016.2 hPa | 0.25 mm | - | 0 W/m² | - |
| 1777963839 | 12.22° C | 83% | 1016 hPa | 0.51 mm | - | 0 W/m² | - |
| 1777962379 | 12.22° C | 84% | 1015.9 hPa | 0.51 mm | - | 0 W/m² | - |
| 1777960581 | 12.22° C | 84% | 1016 hPa | 1.02 mm | - | 0 W/m² | - |
| 1777958063 | 12.78° C | 83% | 1016.3 hPa | 0.25 mm | - | 0 W/m² | - |
| 1777956981 | 12.78° C | 83% | 1016.4 hPa | 0 mm | - | 0 W/m² | - |
| 1777955538 | 12.78° C | 83% | 1016.4 hPa | 0 mm | - | 0 W/m² | - |
* Rain latest hour (hover to see other rain measurements)
** Current wind speed in m/s (hover to see current wind gust speed)